Location: Diati
(11.8376°N, 2.5966°E)
Time: 18:21:00
(UTC+00:00)

NOSS 3-4 (A) - Pass Details

Date: 21 September 2020
Orbit: 886 x 1326 km, 63.4° (Epoch: 19 October)

Event Time Altitude Azimuth Distance (km) Brightness Sun altitude
Rises 18:17:15 0° 191° (S) 3,572 6.6 -8.5°
Reaches altitude 10° 18:19:55 10° 185° (S) 2,592 5.8 -9.1°
Maximum altitude 18:25:35 47° 112° (ESE) 1,159 3.5 -10.5°
Drops below altitude 10° 18:31:09 10° 40° (NE) 2,548 5.3 -11.9°
Sets 18:33:44 0° 34° (NE) 3,506 6.1 -12.5°
